AXI12 KSUS-KATL

Flight info

Callsign AXI12
Flight time 1h 11m
Altitude 39000
Route PLESS5 BNA MTHEW CHPPR1
Aircraft B737/M-SDE2E3FGHIRWXY/LB1

Departure

Time 2026-05-04 01:08
Airport Spirit of St Louis Airport (KSUS)

Arrival

Time 2026-05-04 02:19
Airport Hartsfield Jackson Atlanta International Airport (KATL)
Time Latitude Longitude Altitude Speed Heading
2026-05-04 00:49 38.66128 -90.65054 472 ft 0 kts 166°
2026-05-04 01:01 38.66124 -90.65054 470 ft 3 kts 185°
2026-05-04 01:02 38.66108 -90.65088 471 ft 6 kts 246°
2026-05-04 01:02 38.66071 -90.65104 472 ft 7 kts 179°
2026-05-04 01:02 38.66031 -90.65062 469 ft 9 kts 89°
2026-05-04 01:02 38.66044 -90.64985 469 ft 9 kts 78°
2026-05-04 01:03 38.66056 -90.64910 475 ft 8 kts 78°
2026-05-04 01:03 38.66068 -90.64838 476 ft 8 kts 78°
2026-05-04 01:03 38.66079 -90.64767 472 ft 8 kts 78°
2026-05-04 01:03 38.66090 -90.64699 475 ft 8 kts 78°
2026-05-04 01:04 38.66103 -90.64627 475 ft 10 kts 78°
2026-05-04 01:04 38.66120 -90.64520 475 ft 14 kts 78°
2026-05-04 01:04 38.66141 -90.64398 475 ft 14 kts 78°
2026-05-04 01:04 38.66166 -90.64249 469 ft 22 kts 78°
2026-05-04 01:05 38.66198 -90.64049 469 ft 23 kts 78°
2026-05-04 01:05 38.66231 -90.63852 470 ft 22 kts 78°
2026-05-04 01:05 38.66262 -90.63663 470 ft 21 kts 78°
2026-05-04 01:05 38.66289 -90.63503 471 ft 8 kts 77°
2026-05-04 01:06 38.66283 -90.63454 471 ft 6 kts 138°
2026-05-04 01:06 38.66246 -90.63436 469 ft 6 kts 160°
2026-05-04 01:06 38.66224 -90.63427 472 ft 3 kts 165°
2026-05-04 01:06 38.66201 -90.63421 469 ft 3 kts 182°
2026-05-04 01:07 38.66190 -90.63440 472 ft 0 kts 255°
2026-05-04 01:07 38.66188 -90.63446 467 ft 5 kts 254°
2026-05-04 01:07 38.66155 -90.63650 467 ft 59 kts 259°
2026-05-04 01:07 38.66011 -90.64509 476 ft 134 kts 258°
2026-05-04 01:08 38.65795 -90.65883 776 ft 173 kts 257°
2026-05-04 01:08 38.65588 -90.67524 1334 ft 198 kts 259°
2026-05-04 01:08 38.65367 -90.69296 2083 ft 204 kts 258°
2026-05-04 01:08 38.65158 -90.71082 2950 ft 202 kts 259°
2026-05-04 01:09 38.65055 -90.72951 3510 ft 229 kts 275°
2026-05-04 01:09 38.65773 -90.74876 4265 ft 253 kts 307°
2026-05-04 01:09 38.67261 -90.76143 5363 ft 266 kts 334°
2026-05-04 01:09 38.69118 -90.76490 6531 ft 277 kts 357°
2026-05-04 01:10 38.71025 -90.75902 7658 ft 291 kts 18°
2026-05-04 01:10 38.72700 -90.74355 8802 ft 307 kts 43°
2026-05-04 01:10 38.73982 -90.72141 9965 ft 313 kts 51°
2026-05-04 01:10 38.75189 -90.69761 10753 ft 329 kts 51°
2026-05-04 01:11 38.76453 -90.67212 11419 ft 345 kts 51°
2026-05-04 01:11 38.77752 -90.64595 12430 ft 350 kts 51°
2026-05-04 01:11 38.79078 -90.61961 13528 ft 353 kts 49°
2026-05-04 01:11 38.80426 -90.59315 14577 ft 356 kts 49°
2026-05-04 01:12 38.81772 -90.56680 15580 ft 360 kts 49°
2026-05-04 01:12 38.83158 -90.53964 16585 ft 366 kts 50°
2026-05-04 01:12 38.84219 -90.50915 17535 ft 388 kts 72°
2026-05-04 01:12 38.84320 -90.47395 18507 ft 405 kts 97°
2026-05-04 01:13 38.83318 -90.44000 19401 ft 413 kts 123°
2026-05-04 01:13 38.81520 -90.41128 20357 ft 414 kts 133°
2026-05-04 01:13 38.79571 -90.38307 21241 ft 420 kts 134°
2026-05-04 01:13 38.77626 -90.35543 22098 ft 426 kts 134°
2026-05-04 01:14 38.75634 -90.32706 22973 ft 430 kts 134°
2026-05-04 01:14 38.73630 -90.29828 23799 ft 434 kts 134°
2026-05-04 01:14 38.71619 -90.26914 24499 ft 440 kts 134°
2026-05-04 01:14 38.69583 -90.23946 25125 ft 447 kts 134°
2026-05-04 01:15 38.67526 -90.20935 25764 ft 452 kts 134°
2026-05-04 01:15 38.65446 -90.17885 26400 ft 458 kts 133°
2026-05-04 01:15 38.63343 -90.14801 27104 ft 460 kts 133°
2026-05-04 01:15 38.61223 -90.11692 27769 ft 465 kts 133°
2026-05-04 01:16 38.59082 -90.08558 28322 ft 472 kts 133°
2026-05-04 01:16 38.56904 -90.05375 28867 ft 478 kts 133°
2026-05-04 01:16 38.54704 -90.02161 29425 ft 483 kts 133°
2026-05-04 01:16 38.52481 -89.98919 29977 ft 488 kts 133°
2026-05-04 01:17 38.50237 -89.95650 30432 ft 492 kts 133°
2026-05-04 01:17 38.47976 -89.92358 30870 ft 496 kts 133°
2026-05-04 01:17 38.45684 -89.89027 31261 ft 501 kts 133°
2026-05-04 01:17 38.43378 -89.85677 31625 ft 506 kts 133°
2026-05-04 01:18 38.41043 -89.82289 31996 ft 510 kts 133°
2026-05-04 01:18 38.38690 -89.78880 32359 ft 514 kts 133°
2026-05-04 01:18 38.36286 -89.75399 32723 ft 518 kts 133°
2026-05-04 01:18 38.33895 -89.71941 33090 ft 522 kts 133°
2026-05-04 01:19 38.31493 -89.68471 33499 ft 523 kts 133°
2026-05-04 01:19 38.29086 -89.64997 33978 ft 523 kts 133°
2026-05-04 01:19 38.26683 -89.61532 34416 ft 522 kts 133°
2026-05-04 01:19 38.24282 -89.58074 34901 ft 519 kts 133°
2026-05-04 01:20 38.21897 -89.54642 35409 ft 516 kts 133°
2026-05-04 01:20 38.19523 -89.51229 35895 ft 514 kts 133°
2026-05-04 01:20 38.17161 -89.47840 36285 ft 513 kts 133°
2026-05-04 01:20 38.14790 -89.44441 36647 ft 513 kts 133°
2026-05-04 01:21 38.12427 -89.41058 37064 ft 512 kts 133°
2026-05-04 01:21 38.10068 -89.37684 37514 ft 509 kts 133°
2026-05-04 01:21 38.07725 -89.34334 37956 ft 507 kts 133°
2026-05-04 01:21 38.05383 -89.30992 38378 ft 506 kts 133°
2026-05-04 01:22 38.03050 -89.27663 38754 ft 504 kts 133°
2026-05-04 01:22 38.00718 -89.24341 38950 ft 506 kts 133°
2026-05-04 01:22 37.98363 -89.20990 38947 ft 511 kts 133°
2026-05-04 01:23 37.93629 -89.14264 38931 ft 508 kts 134°
2026-05-04 01:23 37.88971 -89.07655 38946 ft 501 kts 134°
2026-05-04 01:24 37.84322 -89.01075 38974 ft 501 kts 134°
2026-05-04 01:24 37.79664 -88.94497 38973 ft 502 kts 134°
2026-05-04 01:25 37.74995 -88.87925 38982 ft 503 kts 134°
2026-05-04 01:25 37.70318 -88.81352 38968 ft 503 kts 134°
2026-05-04 01:26 37.65641 -88.74789 38978 ft 503 kts 134°
2026-05-04 01:26 37.60962 -88.68238 38980 ft 502 kts 134°
2026-05-04 01:27 37.56282 -88.61704 38984 ft 502 kts 134°
2026-05-04 01:27 37.51600 -88.55177 38981 ft 502 kts 134°
2026-05-04 01:28 37.46919 -88.48662 38977 ft 501 kts 134°
2026-05-04 01:28 37.42239 -88.42161 38991 ft 501 kts 134°
2026-05-04 01:29 37.37559 -88.35674 38979 ft 501 kts 135°
2026-05-04 01:29 37.32874 -88.29192 38989 ft 500 kts 135°
2026-05-04 01:30 37.28191 -88.22726 38994 ft 500 kts 135°
2026-05-04 01:30 37.23500 -88.16263 38994 ft 500 kts 135°
2026-05-04 01:31 37.18813 -88.09817 38994 ft 499 kts 135°
2026-05-04 01:31 37.14130 -88.03388 39002 ft 499 kts 135°
2026-05-04 01:32 37.09448 -87.96975 39002 ft 498 kts 135°
2026-05-04 01:32 37.04767 -87.90576 39002 ft 498 kts 135°
2026-05-04 01:33 37.00083 -87.84185 39007 ft 498 kts 135°
2026-05-04 01:33 36.95403 -87.77813 38999 ft 497 kts 135°
2026-05-04 01:34 36.90730 -87.71462 39017 ft 496 kts 135°
2026-05-04 01:34 36.86049 -87.65112 39029 ft 496 kts 135°
2026-05-04 01:35 36.81377 -87.58787 39031 ft 495 kts 135°
2026-05-04 01:35 36.76700 -87.52468 39016 ft 495 kts 135°
2026-05-04 01:36 36.72027 -87.46165 39000 ft 495 kts 135°
2026-05-04 01:36 36.67354 -87.39876 39036 ft 494 kts 135°
2026-05-04 01:37 36.62679 -87.33596 39037 ft 494 kts 135°
2026-05-04 01:37 36.58006 -87.27329 39050 ft 494 kts 136°
2026-05-04 01:38 36.53322 -87.21062 39046 ft 494 kts 136°
2026-05-04 01:38 36.48645 -87.14814 39062 ft 494 kts 136°
2026-05-04 01:39 36.43964 -87.08572 39048 ft 493 kts 136°
2026-05-04 01:39 36.39290 -87.02353 39052 ft 492 kts 136°
2026-05-04 01:40 36.34625 -86.96156 39050 ft 491 kts 136°
2026-05-04 01:40 36.29959 -86.89971 39057 ft 491 kts 136°
2026-05-04 01:41 36.25288 -86.83790 39044 ft 491 kts 136°
2026-05-04 01:41 36.20615 -86.77617 39037 ft 490 kts 136°
2026-05-04 01:42 36.15953 -86.71468 39064 ft 489 kts 136°
2026-05-04 01:42 36.10810 -86.66152 39097 ft 477 kts 155°
2026-05-04 01:43 36.05010 -86.62155 39081 ft 477 kts 156°
2026-05-04 01:43 36.00181 -86.58855 39095 ft 477 kts 155°
2026-05-04 01:44 35.94396 -86.54817 39100 ft 478 kts 155°
2026-05-04 01:44 35.88625 -86.50738 39058 ft 478 kts 155°
2026-05-04 01:45 35.82848 -86.46664 39038 ft 479 kts 155°
2026-05-04 01:45 35.79935 -86.44619 38460 ft 483 kts 155°
2026-05-04 01:45 35.74123 -86.40533 37188 ft 479 kts 155°
2026-05-04 01:46 35.71229 -86.38499 36523 ft 479 kts 154°
2026-05-04 01:46 35.68335 -86.36467 35835 ft 479 kts 154°
2026-05-04 01:46 35.65438 -86.34436 35104 ft 481 kts 154°
2026-05-04 01:46 35.62517 -86.32390 34389 ft 483 kts 154°
2026-05-04 01:47 35.59607 -86.30351 33818 ft 481 kts 154°
2026-05-04 01:47 35.56711 -86.28324 33267 ft 477 kts 154°
2026-05-04 01:47 35.53853 -86.26322 32900 ft 474 kts 154°
2026-05-04 01:47 35.50970 -86.24299 32494 ft 478 kts 154°
2026-05-04 01:48 35.48073 -86.22263 32124 ft 480 kts 153°
2026-05-04 01:48 35.45188 -86.20236 31727 ft 476 kts 154°
2026-05-04 01:48 35.42346 -86.18194 31337 ft 472 kts 149°
2026-05-04 01:48 35.39696 -86.15837 30993 ft 469 kts 144°
2026-05-04 01:49 35.37190 -86.13304 30642 ft 465 kts 142°
2026-05-04 01:49 35.34730 -86.10756 30289 ft 461 kts 142°
2026-05-04 01:49 35.32269 -86.08258 29895 ft 457 kts 143°
2026-05-04 01:49 35.29803 -86.05828 29498 ft 454 kts 144°
2026-05-04 01:50 35.27341 -86.03440 29159 ft 450 kts 144°
2026-05-04 01:50 35.24888 -86.01080 28802 ft 447 kts 144°
2026-05-04 01:50 35.22450 -85.98747 28462 ft 445 kts 144°
2026-05-04 01:50 35.20017 -85.96424 28111 ft 443 kts 144°
2026-05-04 01:51 35.17592 -85.94109 27744 ft 441 kts 144°
2026-05-04 01:51 35.15187 -85.91813 27448 ft 438 kts 144°
2026-05-04 01:51 35.12789 -85.89524 27108 ft 436 kts 144°
2026-05-04 01:51 35.10410 -85.87253 26772 ft 434 kts 144°
2026-05-04 01:52 35.08036 -85.84988 26433 ft 432 kts 144°
2026-05-04 01:52 35.05673 -85.82735 26107 ft 430 kts 144°
2026-05-04 01:52 35.03323 -85.80496 25779 ft 428 kts 144°
2026-05-04 01:52 35.00983 -85.78268 25455 ft 425 kts 144°
2026-05-04 01:53 34.98652 -85.76050 25121 ft 423 kts 144°
2026-05-04 01:53 34.96339 -85.73851 24803 ft 421 kts 144°
2026-05-04 01:53 34.94034 -85.71662 24480 ft 418 kts 144°
2026-05-04 01:53 34.91747 -85.69490 24156 ft 415 kts 144°
2026-05-04 01:54 34.89477 -85.67337 23845 ft 413 kts 144°
2026-05-04 01:54 34.87218 -85.65197 23493 ft 410 kts 144°
2026-05-04 01:54 34.84970 -85.63066 23131 ft 407 kts 144°
2026-05-04 01:54 34.82745 -85.60958 22795 ft 404 kts 144°
2026-05-04 01:55 34.80532 -85.58866 22479 ft 401 kts 144°
2026-05-04 01:55 34.78337 -85.56791 22169 ft 398 kts 144°
2026-05-04 01:55 34.76156 -85.54730 21860 ft 396 kts 143°
2026-05-04 01:55 34.73990 -85.52685 21558 ft 392 kts 143°
2026-05-04 01:56 34.71840 -85.50654 21258 ft 389 kts 143°
2026-05-04 01:56 34.69708 -85.48642 20962 ft 387 kts 143°
2026-05-04 01:56 34.67587 -85.46641 20661 ft 385 kts 143°
2026-05-04 01:56 34.65475 -85.44650 20358 ft 383 kts 143°
2026-05-04 01:57 34.63372 -85.42669 20070 ft 381 kts 143°
2026-05-04 01:57 34.61283 -85.40703 19779 ft 379 kts 143°
2026-05-04 01:57 34.59201 -85.38744 19483 ft 378 kts 143°
2026-05-04 01:57 34.57129 -85.36796 19205 ft 376 kts 143°
2026-05-04 01:58 34.55067 -85.34858 18911 ft 375 kts 143°
2026-05-04 01:58 34.53007 -85.32924 18627 ft 373 kts 143°
2026-05-04 01:58 34.50959 -85.31001 18327 ft 372 kts 143°
2026-05-04 01:58 34.48909 -85.29078 17999 ft 371 kts 143°
2026-05-04 01:59 34.46864 -85.27161 17598 ft 372 kts 142°
2026-05-04 01:59 34.44831 -85.25257 17285 ft 366 kts 142°
2026-05-04 01:59 34.42831 -85.23384 16998 ft 361 kts 142°
2026-05-04 01:59 34.40855 -85.21534 16716 ft 357 kts 142°
2026-05-04 02:00 34.38898 -85.19704 16438 ft 354 kts 142°
2026-05-04 02:00 34.36957 -85.17891 16166 ft 352 kts 142°
2026-05-04 02:00 34.35024 -85.16086 15897 ft 350 kts 142°
2026-05-04 02:00 34.33103 -85.14295 15629 ft 348 kts 142°
2026-05-04 02:01 34.31189 -85.12511 15364 ft 347 kts 142°
2026-05-04 02:01 34.29281 -85.10733 15104 ft 345 kts 142°
2026-05-04 02:01 34.27383 -85.08965 14848 ft 345 kts 142°
2026-05-04 02:01 34.25485 -85.07198 14581 ft 344 kts 142°
2026-05-04 02:02 34.23593 -85.05438 14312 ft 343 kts 142°
2026-05-04 02:02 34.21703 -85.03679 14056 ft 342 kts 142°
2026-05-04 02:02 34.19818 -85.01927 13786 ft 342 kts 142°
2026-05-04 02:02 34.17937 -85.00179 13490 ft 341 kts 142°
2026-05-04 02:03 34.16059 -84.98435 13224 ft 340 kts 142°
2026-05-04 02:03 34.14189 -84.96700 12965 ft 338 kts 142°
2026-05-04 02:03 34.12346 -84.94965 12785 ft 334 kts 142°
2026-05-04 02:03 34.10549 -84.93259 12598 ft 331 kts 142°
2026-05-04 02:04 34.08723 -84.91524 12415 ft 328 kts 142°
2026-05-04 02:04 34.06928 -84.89821 12242 ft 329 kts 142°
2026-05-04 02:04 34.05123 -84.88111 12070 ft 331 kts 142°
2026-05-04 02:04 34.03302 -84.86390 11887 ft 333 kts 142°
2026-05-04 02:05 34.01478 -84.84666 11701 ft 332 kts 142°
2026-05-04 02:05 33.99685 -84.82974 11513 ft 331 kts 142°
2026-05-04 02:05 33.97853 -84.81245 11329 ft 330 kts 142°
2026-05-04 02:05 33.96046 -84.79541 11149 ft 329 kts 142°
2026-05-04 02:06 33.94243 -84.77841 10969 ft 328 kts 142°
2026-05-04 02:06 33.92444 -84.76147 10789 ft 328 kts 142°
2026-05-04 02:06 33.90651 -84.74459 10615 ft 327 kts 142°
2026-05-04 02:06 33.88860 -84.72775 10440 ft 326 kts 142°
2026-05-04 02:07 33.87103 -84.71121 10237 ft 322 kts 142°
2026-05-04 02:07 33.85373 -84.69495 10052 ft 310 kts 142°
2026-05-04 02:07 33.83689 -84.67913 9969 ft 295 kts 141°
2026-05-04 02:07 33.82093 -84.66413 9731 ft 288 kts 141°
2026-05-04 02:08 33.80545 -84.64959 9578 ft 285 kts 142°
2026-05-04 02:08 33.78985 -84.63494 9422 ft 285 kts 142°
2026-05-04 02:08 33.77391 -84.62000 9266 ft 287 kts 142°
2026-05-04 02:08 33.75813 -84.60521 9109 ft 289 kts 142°
2026-05-04 02:09 33.74292 -84.58957 8920 ft 288 kts 129°
2026-05-04 02:09 33.73404 -84.56838 8781 ft 284 kts 102°
2026-05-04 02:09 33.73224 -84.54503 8532 ft 281 kts 89°
2026-05-04 02:09 33.73243 -84.52133 8019 ft 285 kts 88°
2026-05-04 02:10 33.73272 -84.49748 7526 ft 286 kts 88°
2026-05-04 02:10 33.73288 -84.47348 7044 ft 288 kts 89°
2026-05-04 02:10 33.73293 -84.44946 6569 ft 289 kts 89°
2026-05-04 02:10 33.73295 -84.42560 6096 ft 288 kts 89°
2026-05-04 02:11 33.73296 -84.40195 5844 ft 279 kts 89°
2026-05-04 02:11 33.73296 -84.37890 5581 ft 272 kts 90°
2026-05-04 02:11 33.73296 -84.35621 5315 ft 266 kts 90°
2026-05-04 02:11 33.73296 -84.33424 5062 ft 261 kts 90°
2026-05-04 02:12 33.73294 -84.31241 4813 ft 262 kts 90°
2026-05-04 02:12 33.73295 -84.29050 4558 ft 262 kts 90°
2026-05-04 02:12 33.73298 -84.26864 4304 ft 262 kts 90°
2026-05-04 02:12 33.73300 -84.24679 4080 ft 261 kts 90°
2026-05-04 02:13 33.73303 -84.22490 4024 ft 261 kts 90°
2026-05-04 02:13 33.73305 -84.20315 4006 ft 260 kts 90°
2026-05-04 02:13 33.73307 -84.18141 4004 ft 260 kts 90°
2026-05-04 02:13 33.73166 -84.15981 3988 ft 261 kts 107°
2026-05-04 02:14 33.72273 -84.14117 4007 ft 259 kts 136°
2026-05-04 02:14 33.70755 -84.13023 4006 ft 256 kts 166°
2026-05-04 02:14 33.68998 -84.12866 4014 ft 254 kts 184°
2026-05-04 02:14 33.67263 -84.13209 3991 ft 253 kts 204°
2026-05-04 02:15 33.65869 -84.14442 4008 ft 250 kts 231°
2026-05-04 02:15 33.64939 -84.16194 3982 ft 252 kts 252°
2026-05-04 02:15 33.64844 -84.18290 4016 ft 256 kts 276°
2026-05-04 02:15 33.64987 -84.20427 4015 ft 257 kts 271°
2026-05-04 02:16 33.64992 -84.22567 3943 ft 257 kts 269°
2026-05-04 02:16 33.64976 -84.24696 3653 ft 251 kts 269°
2026-05-04 02:16 33.64969 -84.26748 3331 ft 241 kts 270°
2026-05-04 02:16 33.64966 -84.28716 3015 ft 231 kts 270°
2026-05-04 02:17 33.64964 -84.30599 2706 ft 218 kts 270°
2026-05-04 02:17 33.64961 -84.32314 2433 ft 200 kts 270°
2026-05-04 02:17 33.64959 -84.33915 2194 ft 184 kts 271°
2026-05-04 02:17 33.64958 -84.35382 1954 ft 166 kts 271°
2026-05-04 02:18 33.64957 -84.36715 1736 ft 154 kts 271°
2026-05-04 02:18 33.64948 -84.37960 1527 ft 145 kts 271°
2026-05-04 02:18 33.64939 -84.39122 1399 ft 134 kts 271°
2026-05-04 02:18 33.64949 -84.40206 1174 ft 127 kts 271°
2026-05-04 02:19 33.64953 -84.41243 1017 ft 121 kts 272°
2026-05-04 02:19 33.64956 -84.42099 1006 ft 76 kts 270°
2026-05-04 02:19 33.64955 -84.42622 1006 ft 41 kts 270°
2026-05-04 02:19 33.64961 -84.42829 1005 ft 22 kts 286°
2026-05-04 02:20 33.65040 -84.42941 1005 ft 2 kts 334°
2026-05-04 02:20 33.65053 -84.42937 1005 ft 2 kts 25°
2026-05-04 02:20 33.65063 -84.42891 1005 ft 11 kts 87°
2026-05-04 02:20 33.65064 -84.42763 1005 ft 18 kts 90°
2026-05-04 02:21 33.65064 -84.42620 1005 ft 8 kts 89°
2026-05-04 02:21 33.65110 -84.42588 1006 ft 11 kts 10°
2026-05-04 02:21 33.65176 -84.42564 1006 ft 11 kts 77°
2026-05-04 02:21 33.65187 -84.42475 1005 ft 4 kts 53°
2026-05-04 02:22 33.65225 -84.42449 1005 ft 9 kts 30°
2026-05-04 02:22 33.65232 -84.42444 1005 ft 0 kts 29°